0 GLOBALSTAR M001 1 25162U 98008A 23269.46570288 -.00000074 00000-0 17069-3 0 9991 2 25162 52.0063 6.0074 0001550 29.1966 52.0539 12.38167847165705 0 GLOBALSTAR M004 1 25163U 98008B 23269.18342312 -.00000104 00000-0 18809-6 0 9996 2 25163 51.9987 176.0596 0003132 343.7602 180.9693 12.63338337182057 0 GLOBALSTAR M002 1 25164U 98008C 23269.47980914 -.00000072 00000-0 83110-4 0 9994 2 25164 52.0052 19.0687 0001898 82.3229 277.7807 11.61495251110899 0 GLOBALSTAR M003 1 25165U 98008D 23269.54244447 .00000015 00000-0 11121-2 0 9994 2 25165 51.9731 112.5178 0008533 104.6908 271.5602 12.11939453156877 0 GLOBALSTAR M014 1 25306U 98023A 23269.54620934 -.00000034 00000-0 81313-3 0 9990 2 25306 51.9849 315.3652 0000540 278.9036 230.4215 11.65460014117759 0 GLOBALSTAR M006 1 25307U 98023B 23269.53670937 -.00000056 00000-0 39450-3 0 9997 2 25307 51.9970 344.3286 0003788 62.8481 40.6376 11.58153983143878 0 GLOBALSTAR M015 1 25308U 98023C 23269.56680855 -.00000036 00000-0 85468-3 0 9999 2 25308 51.9836 53.8733 0012935 40.4036 38.0423 11.48850086121711 0 GLOBALSTAR M008 1 25309U 98023D 23269.05929831 -.00000088 00000-0 61172-4 0 9998 2 25309 51.9956 224.8876 0002332 295.9453 143.8111 12.36028133159924 0 GLOBALSTAR M023 1 25621U 99004A 23268.91925113 -.00000213 00000-0 -61045-3 0 9997 2 25621 52.0106 172.5062 0009608 169.0748 270.5355 12.62445043136124 0 GLOBALSTAR M040 1 25622U 99004B 23269.14156653 -.00000070 00000-0 18889-3 0 9997 2 25622 51.9910 175.0656 0001172 74.3181 73.3614 12.61954727135703 0 GLOBALSTAR M036 1 25623U 99004C 23268.86424375 -.00000089 00000-0 -90647-4 0 9999 2 25623 51.9951 101.6383 0010182 288.3599 175.3764 11.86553510104157 0 GLOBALSTAR M038 1 25624U 99004D 23268.79676208 -.00000059 00000-0 29848-3 0 9996 2 25624 51.9961 86.9501 0001908 152.4482 220.9038 12.32484608124644 0 GLOBALSTAR M022 1 25649U 99012A 23269.00494626 -.00000102 00000-0 -18727-3 0 9993 2 25649 52.0031 203.9786 0003063 12.0586 68.1879 12.02469415100563 0 GLOBALSTAR M041 1 25650U 99012B 23269.58372081 -.00000044 00000-0 53298-3 0 9994 2 25650 52.0024 64.6591 0002500 137.3839 222.7192 11.96646876102906 0 GLOBALSTAR M046 1 25651U 99012C 23269.08095574 .00000011 00000-0 10947-2 0 9995 2 25651 52.0046 176.9044 0002830 69.6428 38.0110 12.09378035107422 0 GLOBALSTAR M037 1 25652U 99012D 23269.52288115 -.00000059 00000-0 25089-3 0 9997 2 25652 52.0005 301.5313 0001609 225.2381 299.4259 12.62383464131744 0 GLOBALSTAR M045 1 25676U 99019A 23269.26805573 -.00000055 00000-0 34356-3 0 9997 2 25676 51.9970 300.6058 0000839 56.4652 22.7688 12.27015865116063 0 GLOBALSTAR M019 1 25677U 99019B 23269.50563758 -.00000153 00000-0 -65564-3 0 9996 2 25677 51.9901 26.0003 0001612 119.6251 320.8093 12.13842812108679 0 GLOBALSTAR M044 1 25678U 99019C 23269.35798035 -.00000062 00000-0 30450-3 0 9992 2 25678 51.9949 258.9815 0006238 266.3854 241.3014 11.90222701 96328 0 GLOBALSTAR M042 1 25679U 99019D 23269.52599115 -.00000106 00000-0 -12613-3 0 9991 2 25679 52.0039 28.4451 0003731 87.5463 353.2435 12.22046925108277 0 GLOBALSTAR M025 1 25770U 99031A 23269.15195993 -.00000067 00000-0 17616-4 0 9996 2 25770 51.9803 178.7812 0001008 135.0980 14.2904 11.22545364410950 0 GLOBALSTAR M049 1 25771U 99031B 23269.18394268 -.00000010 00000-0 19257-2 0 9995 2 25771 51.9862 181.8082 0003322 35.1566 324.9449 11.12101264 47330 0 GLOBALSTAR M047 1 25772U 99031C 23269.33599753 -.00000061 00000-0 22637-3 0 9992 2 25772 51.9810 238.6059 0016149 262.6165 97.2805 11.31915522399788 0 GLOBALSTAR M052 1 25773U 99031D 23269.39302222 -.00000045 00000-0 71286-3 0 9998 2 25773 51.9867 298.8655 0002414 206.8674 253.9109 11.15045541408254 0 GLOBALSTAR M035 1 25851U 99037A 23269.61986442 -.00000089 00000-0 -94289-3 0 9995 2 25851 51.9993 18.9357 0013975 44.3166 57.5531 11.04526399 26690 0 GLOBALSTAR M032 1 25852U 99037B 23269.32935948 -.00000067 00000-0 -21107-4 0 9995 2 25852 51.9929 248.2438 0007673 184.8034 175.2693 11.19044825 64278 0 GLOBALSTAR M051 1 25853U 99037C 23268.96023171 -.00000039 00000-0 81460-3 0 9996 2 25853 51.9770 121.2177 0001684 138.4730 221.6209 11.42192267 60373 0 GLOBALSTAR M030 1 25854U 99037D 23269.45249800 -.00000018 00000-0 11984-2 0 9991 2 25854 51.9898 326.1747 0004074 359.9516 0.1300 11.55091952 77274 0 GLOBALSTAR M048 1 25872U 99041A 23269.58701788 -.00000073 00000-0 -71077-4 0 9991 2 25872 51.9401 30.3870 0013546 171.7891 273.6654 11.33839632 53561 0 GLOBALSTAR M026 1 25873U 99041B 23269.07674279 -.00000045 00000-0 70363-3 0 9994 2 25873 51.9989 144.7560 0001269 333.0425 198.4685 11.06827891 78710 0 GLOBALSTAR M043 1 25874U 99041C 23269.00290517 -.00000030 00000-0 11445-2 0 9996 2 25874 51.9380 114.3059 0012941 320.2787 189.0258 11.25675003 51901 0 GLOBALSTAR M028 1 25875U 99041D 23269.18031682 -.00000047 00000-0 34784-3 0 9992 2 25875 51.9612 271.5644 0063599 143.1813 217.3440 12.50541496111354 0 GLOBALSTAR M024 1 25883U 99043A 23269.55480132 -.00000022 00000-0 15014-2 0 9999 2 25883 52.0055 1.2710 0001868 135.2634 323.6535 11.10151811 44930 0 GLOBALSTAR M027 1 25884U 99043B 23268.89432733 -.00000076 00000-0 -45866-3 0 9999 2 25884 52.0219 62.8898 0021754 54.8656 305.4172 11.04366310 71603 0 GLOBALSTAR M054 1 25885U 99043C 23269.40500170 -.00000093 00000-0 -55197-3 0 9996 2 25885 52.0136 294.7390 0004475 160.5985 304.3950 11.39204784 47278 0 GLOBALSTAR M053 1 25886U 99043D 23269.00804260 -.00000078 00000-0 -26990-3 0 9992 2 25886 51.9968 207.8243 0003699 85.3185 354.8522 11.27650994 48355 0 GLOBALSTAR M058 1 25907U 99049A 23269.51419514 -.00000074 00000-0 14008-3 0 9994 2 25907 51.9974 350.5186 0002730 130.5515 229.5558 11.93165832466371 0 GLOBALSTAR M050 1 25908U 99049B 23269.57930748 -.00000170 00000-0 -92744-3 0 9999 2 25908 52.0007 45.0527 0008711 212.8324 229.9222 12.07422237 72133 0 GLOBALSTAR M033 1 25909U 99049C 23269.54064792 -.00000040 00000-0 50057-3 0 9990 2 25909 51.9925 320.4866 0011813 63.0084 297.1969 12.20263014458878 0 GLOBALSTAR M055 1 25910U 99049D 23269.57411664 -.00000064 00000-0 26186-3 0 9991 2 25910 52.0048 1.7752 0006462 262.1189 97.8929 12.29387018 90843 0 GLOBALSTAR M057 1 25943U 99058A 23269.34380824 -.00000053 00000-0 36688-3 0 9991 2 25943 52.0005 335.6061 0003029 151.7063 208.3952 12.24772223 89758 0 GLOBALSTAR M059 1 25944U 99058B 23268.86927589 -.00000049 00000-0 46213-3 0 9993 2 25944 51.9998 112.3439 0000957 92.9077 9.0605 11.99953230498378 0 GLOBALSTAR M056 1 25945U 99058C 23268.99091670 -.00000103 00000-0 -18307-3 0 9996 2 25945 51.9947 130.1680 0001503 40.3941 105.6317 12.04769554 86663 0 GLOBALSTAR M031 1 25946U 99058D 23269.61650624 -.00000154 00000-0 -64337-3 0 9997 2 25946 51.9969 58.4398 0001426 10.3928 71.2624 12.15996548 87951 0 GLOBALSTAR M039 1 25961U 99062A 23269.51010048 -.00000091 00000-0 72057-4 0 9996 2 25961 51.9870 26.4920 0003103 45.3098 314.8021 12.62270611100697 0 GLOBALSTAR M034 1 25962U 99062B 23269.01462020 -.00000079 00000-0 29540-4 0 9998 2 25962 51.9859 209.4257 0013948 293.4870 145.9186 11.79415299 64035 0 GLOBALSTAR M029 1 25963U 99062C 23269.58552868 -.00000067 00000-0 24033-3 0 9999 2 25963 51.9838 358.9806 0002135 329.5223 136.5496 11.99867615 93545 0 GLOBALSTAR M061 1 25964U 99062D 23269.54425785 -.00000076 00000-0 69355-4 0 9990 2 25964 51.9825 23.7412 0005740 216.2859 226.3505 11.76750055 47052 0 GLOBALSTAR M063 1 26081U 00008A 23269.34377650 -.00000049 00000-0 49082-3 0 9992 2 26081 51.9976 330.3175 0004708 183.3518 257.1369 11.86144698 82838 0 GLOBALSTAR M062 1 26082U 00008B 23269.09978440 .00000001 00000-0 71045-3 0 9990 2 26082 51.9833 148.6017 0006205 202.4727 322.6197 12.43415953418238 0 GLOBALSTAR M060 1 26083U 00008C 23269.62139101 -.00000171 00000-0 -80112-3 0 9998 2 26083 52.0049 18.0104 0002711 288.2032 175.2947 12.17613152 75670 0 GLOBALSTAR M064 1 26084U 00008D 23269.39990977 -.00000079 00000-0 55745-4 0 9990 2 26084 52.0026 76.4205 0000720 311.9661 48.1111 11.88509716 92213 0 GLOBALSTAR M065 1 31571U 07020A 23269.41437035 -.00000085 00000-0 10655-3 0 9999 2 31571 51.9917 342.9991 0009965 357.3535 84.0283 12.61952284753895 0 GLOBALSTAR M069 1 31573U 07020C 23269.39803199 -.00000042 00000-0 34551-3 0 9990 2 31573 51.9952 299.2238 0000371 166.7898 295.7346 12.62281597755010 0 GLOBALSTAR M072 1 31574U 07020D 23269.54741328 -.00000095 00000-0 49351-4 0 9996 2 31574 52.0104 34.4654 0001026 95.3061 344.9542 12.62265926753303 0 GLOBALSTAR M071 1 31576U 07020F 23269.42521361 -.00000051 00000-0 29201-3 0 9991 2 31576 52.0071 304.1009 0000858 167.6214 297.2765 12.62268841416205 0 GLOBALSTAR M067 1 32263U 07048A 23268.74478194 -.00000076 00000-0 15550-3 0 9993 2 32263 51.9723 80.5874 0001692 81.5391 291.7722 12.40632005731231 0 GLOBALSTAR M070 1 32264U 07048B 23269.25157091 -.00000078 00000-0 14522-3 0 9991 2 32264 51.9734 247.4748 0000529 112.6584 349.3865 12.62278703734119 0 GLOBALSTAR M066 1 32265U 07048C 23268.98145639 -.00000072 00000-0 17879-3 0 9998 2 32265 51.9660 110.3707 0001091 42.5665 104.9438 12.62265044736349 0 GLOBALSTAR M068 1 32266U 07048D 23269.58940774 -.00000084 00000-0 11044-3 0 9990 2 32266 51.9891 61.3820 0001101 142.3776 295.4446 12.62766701738018 0 GLOBALSTAR M079 1 37188U 10054A 23269.27723705 -.00000087 00000-0 92204-4 0 9999 2 37188 52.0023 257.3347 0000443 50.5932 51.4197 12.62268043596907 0 GLOBALSTAR M074 1 37189U 10054B 23269.39656416 -.00000096 00000-0 44505-4 0 9998 2 37189 52.0001 256.3913 0000420 77.9266 86.7986 12.62270077597526 0 GLOBALSTAR M076 1 37190U 10054C 23269.42282094 -.00000105 00000-0 -61804-5 0 9995 2 37190 52.0021 256.4248 0000974 61.4428 103.1088 12.62261318597248 0 GLOBALSTAR M077 1 37191U 10054D 23269.24875580 -.00000097 00000-0 36341-4 0 9990 2 37191 52.0063 213.6300 0000532 72.9209 78.8260 12.62264022597596 0 GLOBALSTAR M075 1 37192U 10054E 23269.42301309 -.00000069 00000-0 19556-3 0 9991 2 37192 51.9947 299.0341 0000378 62.9172 41.7985 12.62261673596473 0 GLOBALSTAR M073 1 37193U 10054F 23269.18587700 -.00000108 00000-0 -23315-4 0 9990 2 37193 52.0051 213.0914 0000552 62.4462 44.3551 12.62267664598279 0 GLOBALSTAR M083 1 37739U 11033A 23269.04018861 -.00000094 00000-0 54415-4 0 9994 2 37739 51.9849 163.1268 0000434 58.5460 47.1317 12.62269374567275 0 GLOBALSTAR M088 1 37740U 11033B 23268.77619532 -.00000092 00000-0 64193-4 0 9999 2 37740 51.9735 69.9508 0000555 73.4730 31.4259 12.62265852562780 0 GLOBALSTAR M091 1 37741U 11033C 23269.49611760 -.00000105 00000-0 -79385-5 0 9991 2 37741 52.0021 30.1876 0000422 77.5579 359.7063 12.62266421563927 0 GLOBALSTAR M085 1 37742U 11033D 23269.40427065 -.00000100 00000-0 22456-4 0 9996 2 37742 51.9895 342.0653 0000288 88.6229 351.9711 12.62262940564161 0 GLOBALSTAR M081 1 37743U 11033E 23269.51487885 -.00000079 00000-0 13737-3 0 9991 2 37743 51.9985 344.1273 0000446 63.5496 39.7138 12.62264556564324 0 GLOBALSTAR M089 1 37744U 11033F 23269.39611531 -.00000063 00000-0 22859-3 0 9993 2 37744 51.9930 298.8366 0000642 88.8137 14.0280 12.62267318565158 0 GLOBALSTAR M084 1 38040U 11080A 23269.01442998 -.00000087 00000-0 91714-4 0 9996 2 38040 52.0000 166.9517 0000885 77.0509 29.8373 12.62266252543084 0 GLOBALSTAR M080 1 38041U 11080B 23269.06761377 -.00000089 00000-0 83006-4 0 9994 2 38041 52.0053 168.1744 0001053 68.1415 40.9275 12.62264706543216 0 GLOBALSTAR M082 1 38042U 11080C 23269.01003858 -.00000079 00000-0 13911-3 0 9999 2 38042 52.0060 123.7285 0000178 96.3438 51.4231 12.62271168543913 0 GLOBALSTAR M092 1 38043U 11080D 23269.04792045 -.00000108 00000-0 -22010-4 0 9991 2 38043 52.0076 213.9548 0000737 90.2303 350.0757 12.62272168542371 0 GLOBALSTAR M090 1 38044U 11080E 23269.04003317 -.00000075 00000-0 16115-3 0 9999 2 38044 51.9868 118.2578 0000532 61.0000 103.3148 12.62277935544037 0 GLOBALSTAR M086 1 38045U 11080F 23269.06667877 -.00000072 00000-0 17638-3 0 9997 2 38045 51.9883 118.6775 0001396 34.1890 131.8469 12.62262856543986 0 GLOBALSTAR M097 1 39072U 13005A 23269.61120160 -.00000106 00000-0 -10395-4 0 9990 2 39072 52.0069 30.9266 0000428 77.3852 282.7063 12.62270715491305 0 GLOBALSTAR M093 1 39073U 13005B 23269.50544268 -.00000104 00000-0 -69045-7 0 9995 2 39073 51.9835 25.5593 0000404 47.0083 313.0818 12.62266760491246 0 GLOBALSTAR M094 1 39074U 13005C 23269.26795132 -.00000072 00000-0 17832-3 0 9993 2 39074 51.9958 300.0391 0000325 62.8176 297.2723 12.62267882492829 0 GLOBALSTAR M096 1 39075U 13005D 23269.51855875 -.00000076 00000-0 15612-3 0 9991 2 39075 52.0102 347.2967 0000344 71.8869 288.2035 12.62264126491772 0 GLOBALSTAR M078 1 39076U 13005E 23268.77925471 -.00000092 00000-0 65016-4 0 9991 2 39076 51.9871 74.9087 0000725 177.6561 182.4309 12.62261523490303 0 GLOBALSTAR M095 1 39077U 13005F 23269.59794519 -.00000102 00000-0 11999-4 0 9993 2 39077 51.9799 69.9279 0000146 142.3367 217.7509 12.62269021490260 0 GLOBALSTAR M087 1 52888U 22064A 23268.69127129 -.00000105 00000-0 44892-4 0 9991 2 52888 51.9765 54.1356 0010045 53.9415 306.2415 13.37553120 61993